Погода в Мамакане

Поиск расширенной информации на нашем сайте:

Полезная информация:

Новости сайта



02.01.2020
Опубликован Долгосрочный прогноз погоды по городам России и ближнего зарубежья на январь 2020 года.
Карты: Прогноз на январь и февраль 2020 года, Сравнение прогнозируемой аномалии приземной температуры воздуха на январь 2020 года по разным моделям.




Погода в Мамакане - сегодня

Время (UTC), дата Ветер
(°,м/с) 
Видим.   Явления Облачность Т
(°С)
Тd
(°С)
f(%) Тe
(°С)
Pmin
(гПа)
dP
(гПа)
Po
(мм)
O2
(г/м3)
Тmin Tmax R s Состояние
почвы
21 23.11.20 тихо ()   н/о  слаб. ливневой снег  10/10 1000 м кучево-дожд. 
[Cb cap]
-4.5 -6.8 84 -5  1023.8  744  306           
00 24.11.20 210 (ЮЗ) н/о  в посл. час ливневой снег  10/8 1000 м кучево-дожд., верхняя 
[Cb cap|Cs]
-5.3 -10.3 68 -7  1026.7  2.7  746  308  -5.5    0.0  23  равномерный
сухой снег
100% 
03 24.11.20 250 (З) 20000 м    9/6 1000 м кучево-дожд., средняя, верхняя 
[Cb cap|Ac lent|Cs]
-5.5 -11.6 62 -8  1028.1  1.4  747  308           
06 24.11.20 270 (З) 20000 м  позёмок{ливн. осадки}  10/10 1000 м кучево-дожд. 
[Cb cap]
-6.4 -10 76 -8  1030.1  1.8  749  310           
09 24.11.20 280 (З) н/о  {ливн. осадки}  10/8 1000 м кучево-дожд., верхняя 
[Cb cap|Cs]
-7.6 -12.1 70 -9  1033.2  2.9  751  312           
12 24.11.20 270 (З) н/о  {ливн. осадки}  10/8 1000 м кучево-дожд., верхняя 
[Cb cap|Cs]
-8.4 -13.1 69 -10  1035.4  752  314    -5  0.2     
15 24.11.20 тихо ()   н/о    10/8 1000 м кучево-дожд., верхняя 
[Cb cap|Cs]
-10.1 -14.5 70 -10  1037.4  1.7  754  317           
18 24.11.20 280 (З) н/о    10/8 1000 м кучево-дожд., верхняя 
[Cb cap|Cs]
-13.2 -16.7 75 -13  1038.2  0.4  754  321           
21 24.11.20 270 (З) н/о    10/6 1000 м кучево-дожд., верхняя 
[Cb cap|Cs]
-14.5 -16.5 85 -15  1038.5  0.2  754  322           
00 25.11.20 270 (З) н/о    10/6 1000 м верхняя 
[Sc diur, vesp|Cs]
-14.5 -17.2 80 -15  1039.7  1.1  755  323  -14.8      21  равномерный
сухой снег
100% 
03 25.11.20 230 (ЮЗ) 20000 м    9/5 1000 м кучево-дожд., средняя, верхняя 
[Cb cap|Ac trans|Cs]
-10.9 -13.7 80 -13  1039.7  0.4  755  318           
06 25.11.20 280 (З) 20000 м    9/8 1000 м кучево-дожд., средняя, верхняя 
[Cb cap|Ac lent|Ci fib]
-8.2 -13.4 66 -8  1039.3  755  315           
09 25.11.20 260 (З) н/о    10/6 1000 м кучево-дожд., средняя, верхняя 
[Cb cap|Ac lent|Cs]
-8.5 -12.8 71 -8  1039.7  0.4  755  315           
12 25.11.20 тихо ()   н/о  слаб. ливневой снег  10/8 1000 м кучево-дожд., верхняя 
[Cb cap|Cs]
-10.3 -13.1 80 -10  1041.1  1.1  756  318    -8.1  0.0     
15 25.11.20 280 (З) н/о  {ливн. осадки}  10/8 1000 м кучево-дожд., верхняя 
[Cb cap|Cs]
-10.3 -13.1 80 -10  1042.1  0.9  757  318           
18 25.11.20 тихо ()   н/о  {ливн. осадки}  10/6 1000 м кучево-дожд., верхняя 
[Cb cap|Cs]
-11.4 -13.4 85 -11  1043.3  1.1  758  320           
21 25.11.20 тихо ()   н/о    10/8 1000 м кучево-дожд., верхняя 
[Cb cap|Cs]
-12.8 -14.1 90 -13  1043.6  758  322           
00 26.11.20 080 (В) н/о  слаб. ливневой снег  10/10 1000 м кучево-дожд. 
[Cb cap]
-13.4 -14.7 90 -13  1044.2  0.6  758  323  -13.4    0.0  21  равномерный
сухой снег
100% 
03 26.11.20 070 (В) 20000 м  слаб. ливневой снег  10/8 1000 м кучево-дожд., верхняя 
[Cb cap|Cs]
-14.3 -16.3 85 -14  1044.6  0.3  758  324  -14.3         
06 26.11.20 090 (В) 20000 м  слаб. ливневой снег  10/10 1000 м кучево-дожд. 
[Cb cap]
-13.3 -15.3 85 -13  1044.1  -0.4  758  322           
09 26.11.20 120 (ЮВ) н/о  слаб. ливневой снег  10/8 1000 м кучево-дожд., средняя, верхняя 
[Cb cap|Ac lent|Cs]
-13.2 -15.2 85 -13  1044.1  758  322           
12 26.11.20 090 (В) н/о  слаб. ливневой снег  10/6 1000 м кучево-дожд., верхняя 
[Cb cap|Cs]
-13.4 -14.7 90 -13  1044.4  0.3  758  323    -13  0.4     
15 26.11.20 тихо ()   н/о  слаб. ливневой снег  10/8 1000 м кучево-дожд., верхняя 
[Cb cap|Cs]
-13.1 -14.4 90 -13  1043.8  -0.6  758  322           
18 26.11.20 тихо ()   н/о  слаб. ливневой снег  10/8 1000 м кучево-дожд., верхняя 
[Cb cap|Cs]
-12.9 -14.2 90 -13  1043.7  -0.1  758  322           
21 26.11.20 тихо ()   н/о  слаб. снег{ливн. осадки}  10/5 1000 м средняя, верхняя 
[Sc diur, vesp|Ac lent|Cs]
-13.6 -14.9 90 -14  1043.4  -0.3  758  323           
Время (UTC), дата Ветер
(°,м/с) 
Видим.   Явления Облачность Т
(°С)
Тd
(°С)
f(%) Тe
(°С)
Pmin
(гПа)
dP
(гПа)
Po
(мм)
O2
(г/м3)
Тmin Tmax R s Состояние
почвы

Для получения пояснительной информации подведите курсор к названию столбца.

ПОГОДА в Мамакане - архив

Всё, что Вы хотите узнать о погоде в Мамакане - удобно и подробно!

Выберите нужную дату (начиная с 1 января 2019* года) и нажмите кнопку "Найти".
Будут отображены архивные сводки погоды по пункту Мамакан, начиная с указанной даты.


Отображать данные в формате CSV (для использования в таблицах Excel)


Внимание! Наш архив погоды предназначен исключительно для личного некоммерческого использования в познавательных целях. Если Вам необходимы официальные справки о состоянии погоды (для производственных, юридических, коммерческих и т.п. целей), обращайтесь в органы Росгидромета.

*Примечание: данная дата относится к архиву по метеостанциям СССР (Россия, СНГ, Балтия).
Архив по метеостанциям Зарубежной Европы и Азии (кроме Китая) хранится 10 дней, по другим регионам земного шара (Китай, Африка, Америка, Австралия, Океания) - 1 день.

Мамакан - район местоположения метеостанции


Название, широта, долгота, высота метеостанции:
Мамакан 57.82°ш. 114°д. 249 м над ур. моря [Российская Федерация]

Дополнительная информация

В oтличие oт бoльшинства пoгoдных сайтoв мы публикуем пoдрoбную метеoинфoрмацию в детальнoм прoфессиoнальнoм фoрмате.

Характеристики температуры и влажнoсти вoздуха измеряются на высoте 2 м в тени вдали oт зданий и деревьев.
Скoрoсть ветра измеряется на высoте 10 м (на урoвне рoста челoвека скoрoсть ветра ниже в 1.5-2 раза). Если метеoстанция нахoдится в гoрoде или в лесу, тo скoрoсть ветра занижена на 2-4 м/с пo сравнению с oткрытым местoм. Скoрoсть ветра над акватoриями крупных рек и oзёр, а также на вершинах хoлмoв на 2-5 м/с выше, чем в oбычных услoвиях.
Атмoсфернoе давление в разных тoчках местнoсти мoжет значительнo oтличаться oт давления на метеoстанции, в зависимoсти oт услoвий рельефа (при пoдъёме на 10 м давление пoнижается примернo на 1 мм рт.ст.).